Powrót do katalogu

M2 PATHFINDER

AktywnyNaukaSSO
NORAD 45727·PAYLOAD·🇦🇺 Australia

Wystrzelony Jun 13, 2020 z Rocket Lab Launch Complex 1

Loading…

Następne Przeloty (najbliższe 24 godziny)

TLE

ŚwieżeSource: Space-Track

Epoka: Sep 14, 2026, 11:31 UTC

1 45727U 20037E   26257.48023860  .00002327  00000-0  16832-3 0  9997
2 45727  97.8135  89.7421 0010775 205.6117 154.4576 15.05016753338923

Śledź M2 PATHFINDER w czasie rzeczywistym z AllMySat

Download on the App Store